{"data":{"norad_id":68209,"intl_designator":"2026-053C","name":"STARLINK-36948","alt_names":[],"object_type":"PAYLOAD","status":"ACTIVE","operator":null,"country":"US","launch_date":"2026-03-17","launch_site_code":"AFWTR","launch_vehicle":null,"mission":null,"orbit_class":"UNKNOWN","rcs_meters":null,"size_class":null,"mass_kg":null,"dimensions":null,"purposes":["comms"],"wikipedia_slug":null,"has_3d_model":false,"image_url":null,"decayed_at":null,"tle_current":{"epoch":"2026-09-19T10:06:10.107648Z","epoch_age_seconds":145056,"freshness":"FRESH","line1":"1 68209U 26053C   26262.42095032  .00010844  00000+0  33776-3 0  9999","line2":"2 68209  97.2859 136.1469 0001671  86.4224 273.7210 15.33442195 29884","mean_motion":15.33442195,"eccentricity":0.0001671,"inclination_deg":97.2859,"raan_deg":136.1469,"arg_perigee_deg":86.4224,"mean_anomaly_deg":273.721,"bstar":0.00033776,"rev_number":2988,"period_min":93.906376431751,"perigee_km":464.40793984564,"apogee_km":466.69510054909,"semimajor_km":6843.6885201974,"source":"CELESTRAK","updated_at":"2026-09-20T09:00:43.832631Z"}}}